Location: Waco, TX
(31.5480°N, 97.1670°W)
Time: 22:00:51
(UTC-06:00)

ISS - Pass Details

Date: 19 February 2019
Orbit: 403 x 411 km, 51.6° (Epoch: 22 February)

Event Time Altitude Azimuth Distance (km) Brightness Sun altitude
Rises 07:25:45 0° 223° (SW) 2,302 -0.3 3.1°
Reaches altitude 10° 07:27:49 10° 223° (SW) 1,446 -1.3 3.6°
Maximum altitude 07:31:04 88° 139° (SE) 405 -3.7 4.2°
Drops below altitude 10° 07:34:20 10° 45° (NE) 1,454 -0.6 4.9°
Sets 07:36:25 0° 45° (NE) 2,316 0.4 5.3°
